Date,TemperatureHighF,TemperatureAvgF,TemperatureLowF,DewpointHighF,DewpointAvgF,DewpointLowF,HumidityHigh,HumidityAvg,HumidityLow,PressureMaxIn,PressureMinIn,WindSpeedMaxMPH,WindSpeedAvgMPH,GustSpeedMaxMPH,PrecipitationSumIn
2013-1-1,90,28,17,74,27,17,99,99,60,29.98,29.61,8,1,14,0.00
2013-1-2,39,25,14,26,20,14,99,83,50,29.99,29.89,5,0,8,0.00
2013-1-3,46,31,20,34,26,20,99,84,50,30.13,29.96,3,1,8,0.00
2013-1-4,51,34,21,30,26,21,99,76,38,30.18,30.04,5,1,9,0.00
2013-1-5,42,35,27,37,32,26,99,89,73,30.05,29.87,7,2,12,0.00
2013-1-6,47,33,24,33,27,23,99,82,47,30.08,29.92,7,1,12,0.00
2013-1-7,54,37,22,32,28,22,99,72,40,30.08,29.86,7,2,13,0.00
2013-1-8,57,44,30,48,36,28,99,77,44,29.95,29.79,6,2,13,0.31
2013-1-9,58,50,43,49,43,38,99,79,54,30.12,29.95,7,2,14,0.02
2013-1-10,53,48,43,53,47,39,99,97,66,30.03,29.57,8,3,17,0.33
2013-1-11,69,56,45,54,49,45,99,81,49,29.61,29.48,9,3,24,0.00
2013-1-12,54,42,27,52,38,27,99,89,57,29.72,29.55,11,2,23,0.24
2013-1-13,27,21,13,27,21,13,99,97,85,30.07,29.67,0,0,0,0.01
2013-1-14,35,21,13,23,17,12,99,85,56,30.20,30.05,0,0,0,0.02
2013-1-15,37,24,17,25,19,14,99,85,43,30.07,29.88,4,1,9,0.00
2013-1-16,97,28,14,74,23,14,99,82,46,29.98,29.69,5,1,10,0.00
2013-1-17,49,34,25,37,29,23,99,84,53,30.29,29.98,8,2,16,0.01
2013-1-18,62,41,25,33,27,21,99,65,23,30.31,29.67,7,2,15,0.00
2013-1-19,68,50,36,39,35,29,85,60,32,29.71,29.54,8,2,18,0.00
2013-1-20,60,42,27,37,23,11,99,55,17,29.78,29.65,8,2,17,0.00
2013-1-21,35,26,18,19,16,13,87,66,44,29.87,29.77,7,3,14,0.00
2013-1-22,35,27,19,20,17,14,83,67,51,29.85,29.72,4,1,11,0.00
2013-1-23,63,39,21,44,31,20,98,75,49,29.79,29.63,6,2,12,0.00
2013-1-24,35,30,24,26,17,12,75,58,44,29.90,29.63,8,4,18,0.00
2013-1-25,53,36,26,33,28,20,99,75,39,29.75,29.60,6,1,12,0.00
2013-1-26,62,45,30,32,26,20,92,55,20,29.78,29.65,7,2,17,0.00
2013-1-27,54,48,41,54,45,28,99,92,50,29.66,29.40,8,4,20,0.01
2013-1-28,75,65,54,66,62,54,99,88,64,29.47,29.34,11,4,27,0.00
2013-1-29,68,60,48,66,59,47,99,97,86,29.35,28.97,11,2,22,2.28
2013-1-30,48,32,26,48,31,22,99,93,83,29.52,28.95,7,2,14,0.07
2013-1-31,45,25,12,32,20,5,99,82,53,29.91,29.47,7,2,19,0.00
2013-2-1,35,22,7,18,10,3,88,61,40,29.94,29.66,6,2,14,0.00
2013-2-2,54,38,25,38,30,17,95,72,48,29.70,29.62,5,1,14,0.02
2013-2-3,54,43,33,34,28,20,92,58,27,29.76,29.47,8,2,18,0.00
2013-2-4,64,48,33,46,36,27,98,64,40,29.47,29.33,8,2,17,0.02
2013-2-5,66,45,28,42,33,27,99,70,29,29.59,29.43,6,1,11,0.00
2013-2-6,60,47,33,41,37,31,93,69,41,29.65,29.48,8,3,17,0.00
2013-2-7,53,47,40,52,46,40,99,95,80,29.59,29.39,10,3,20,0.21
2013-2-8,54,39,32,40,34,31,99,86,50,29.81,29.59,10,3,19,0.00
2013-2-9,43,36,32,37,34,31,99,92,70,29.75,29.38,8,4,20,0.12
2013-2-10,64,49,37,59,38,28,99,72,26,29.51,29.14,11,4,21,0.19
2013-2-11,55,41,31,32,29,25,91,64,32,29.67,29.50,5,1,9,0.00
2013-2-12,98,48,32,74,43,32,99,88,43,29.93,29.78,4,0,10,9.71
2013-2-13,51,39,32,40,35,31,99,88,59,29.92,29.84,4,1,11,0.32
2013-2-14,58,45,34,38,33,27,86,62,39,30.08,29.86,5,1,9,0.00
2013-2-15,43,35,24,34,21,10,96,61,28,30.24,30.08,7,2,17,0.00
2013-2-16,41,31,22,27,22,16,99,70,39,30.25,30.06,5,2,13,0.01
2013-2-17,65,47,30,36,28,22,74,49,27,30.06,29.78,8,3,17,0.00
2013-2-18,59,47,31,54,42,26,99,81,62,30.03,29.53,12,4,26,0.04
2013-2-19,44,32,24,26,18,11,87,60,27,30.23,30.03,8,2,14,0.00
2013-2-20,35,29,24,16,12,10,58,49,36,30.25,30.06,6,2,12,0.00
2013-2-21,32,30,27,32,28,17,99,93,56,30.07,29.66,7,1,17,0.00
2013-2-22,35,27,22,33,25,21,99,91,68,30.03,29.76,0,0,0,0.14
2013-2-23,44,29,16,28,22,16,99,79,45,30.03,29.91,4,0,9,0.01
2013-2-24,57,41,24,38,31,23,98,71,47,29.98,29.83,8,2,16,0.00
2013-2-25,46,38,34,37,32,28,99,80,51,29.88,29.37,13,4,27,0.43
2013-2-26,35,32,31,35,32,31,99,99,99,29.77,29.30,5,0,14,0.08
2013-2-27,35,32,30,34,31,30,99,95,85,29.96,29.74,7,2,13,0.04
2013-2-28,34,30,28,31,29,27,99,94,87,30.10,29.95,6,2,12,0.00
2013-3-1,30,28,26,29,27,26,99,97,87,30.17,30.07,4,2,11,0.00
2013-3-2,36,27,21,27,23,20,99,86,62,30.25,30.13,8,2,14,0.05
2013-3-3,56,38,20,30,27,20,99,67,35,30.14,29.78,8,3,17,0.01
2013-3-4,68,50,37,49,40,31,99,71,43,29.78,29.58,8,3,18,0.00
2013-3-5,43,36,29,38,28,22,99,74,50,30.21,29.77,13,4,21,0.05
2013-3-6,49,35,25,28,24,20,83,66,42,30.33,30.19,10,3,18,0.00
2013-3-7,62,46,32,35,29,21,84,56,20,30.24,30.10,7,3,17,0.00
2013-3-8,60,48,36,42,37,34,95,68,45,30.22,30.01,8,4,17,0.00
2013-3-9,73,57,44,59,48,39,99,75,36,30.01,29.67,13,4,22,0.78
2013-3-10,60,47,31,56,47,31,99,98,77,29.84,29.59,8,3,17,0.86
2013-3-11,44,34,27,33,28,26,99,83,56,29.97,29.79,7,2,17,0.01
2013-3-12,56,40,27,32,28,23,99,64,31,30.25,29.95,7,2,14,0.00
2013-3-13,49,37,26,28,25,19,90,64,32,30.39,30.24,4,1,8,0.00
2013-3-14,73,52,32,44,34,24,86,55,29,30.30,30.04,10,2,21,0.00
2013-3-15,84,65,48,52,46,40,87,55,23,30.05,29.71,8,2,20,0.00
2013-3-16,68,57,43,52,46,40,94,69,48,29.88,29.70,11,4,23,0.01
2013-3-17,42,39,37,42,39,36,99,99,97,29.94,29.65,8,3,15,1.22
2013-3-18,56,44,34,44,38,31,99,84,48,29.99,29.64,7,2,13,0.01
2013-3-19,51,39,27,35,26,12,99,65,24,30.19,29.98,8,1,16,0.01
2013-3-20,45,35,27,33,21,5,99,63,21,30.27,30.06,9,3,18,0.00
2013-3-21,37,30,25,32,22,12,99,75,38,30.06,29.83,5,2,13,0.00
2013-3-22,41,34,29,39,34,29,99,99,93,29.90,29.81,5,2,14,0.12
2013-3-23,42,38,34,40,37,34,99,99,94,29.91,29.67,5,1,12,0.17
2013-3-24,41,33,27,41,33,25,99,98,90,30.00,29.54,6,2,14,0.38
2013-3-25,34,27,22,29,25,21,99,91,77,30.23,29.97,7,3,16,0.00
2013-3-26,42,32,21,31,27,21,99,83,56,30.33,30.22,4,1,10,0.00
2013-3-27,54,40,25,34,29,24,99,68,39,30.28,30.12,7,2,16,0.00
2013-3-28,71,57,-11,49,41,-52,76,58,10,30.18,30.06,30,2,30,0.00
2013-3-29,71,58,50,59,52,45,99,82,53,30.14,30.06,7,1,13,0.12
2013-3-30,71,56,49,60,54,49,99,93,68,30.09,29.78,6,2,20,0.24
2013-3-31,70,57,46,56,46,40,99,73,35,29.93,29.81,8,1,11,0.34
2013-4-1,56,46,39,44,38,28,99,73,53,30.17,29.91,8,3,17,0.00
2013-4-2,42,38,34,36,33,29,97,81,66,30.24,30.13,8,2,15,0.14
2013-4-3,59,45,31,33,26,17,84,51,21,30.24,30.11,7,2,17,0.00
2013-4-4,58,48,38,37,32,26,82,56,32,30.12,30.00,8,2,13,0.00
2013-4-5,73,55,32,42,36,31,98,55,26,30.14,29.94,5,1,9,0.00
2013-4-6,76,62,51,51,45,38,72,54,34,29.94,29.73,13,3,25,0.00
2013-4-7,80,67,53,63,56,50,99,71,43,29.88,29.69,8,2,18,0.00
2013-4-8,76,67,59,64,61,59,99,84,66,29.77,29.68,8,3,17,0.00
2013-4-9,79,69,61,67,63,60,99,82,62,29.79,29.69,7,3,18,0.00
2013-4-10,70,53,38,67,52,38,99,97,78,29.82,29.63,7,2,17,0.93
2013-4-11,51,40,33,39,35,33,99,85,56,29.79,29.69,6,2,14,0.00
2013-4-12,55,44,34,39,35,30,99,74,49,29.98,29.73,6,2,13,0.00
2013-4-13,72,55,36,49,42,36,99,66,37,30.02,29.76,8,2,16,0.00
2013-4-14,82,67,52,62,49,34,99,59,19,29.78,29.49,11,4,24,0.08
2013-4-15,83,64,52,70,60,50,99,86,57,29.85,29.66,10,2,17,0.01
2013-4-16,64,53,48,60,52,48,99,96,83,29.99,29.84,8,3,14,0.01
2013-4-17,86,70,50,73,64,49,99,82,62,29.96,29.61,11,3,19,0.00
2013-4-18,74,51,38,70,49,32,99,93,80,29.89,29.52,6,2,18,0.91
2013-4-19,55,44,33,36,30,26,82,62,35,30.04,29.87,6,2,15,0.00
2013-4-20,69,52,32,40,36,32,99,60,26,30.17,30.04,5,1,10,0.00
2013-4-21,70,59,49,46,42,39,86,57,33,30.25,30.09,8,3,16,0.00
2013-4-22,73,60,46,48,42,34,85,56,26,30.16,29.87,7,2,17,0.00
2013-4-23,60,48,36,54,45,35,99,92,66,30.04,29.82,7,2,14,0.47
2013-4-24,55,44,34,40,34,29,99,73,40,30.24,30.03,6,2,11,0.02
2013-4-25,72,54,32,42,35,27,99,56,20,30.31,30.17,6,1,11,0.00
2013-4-26,59,50,46,49,46,39,99,89,47,30.30,30.11,8,3,21,1.61
2013-4-27,56,51,47,56,50,46,99,99,99,30.13,29.95,6,1,15,0.25
2013-4-28,74,59,49,59,52,47,99,80,39,29.99,29.83,4,1,9,0.00
2013-4-29,88,70,50,68,57,50,99,69,31,29.88,29.71,8,2,16,0.00
2013-4-30,86,73,58,62,55,46,99,58,27,29.85,29.76,8,2,18,0.00
2013-5-1,84,71,58,68,62,52,99,73,48,30.03,29.85,6,1,15,0.00
2013-5-2,64,49,34,63,48,34,99,97,89,30.17,30.00,8,3,17,0.22
2013-5-3,37,34,32,37,34,32,99,99,99,30.15,29.85,4,1,13,0.52
2013-5-4,48,40,32,42,37,32,99,92,71,29.95,29.78,7,1,12,0.22
2013-5-5,62,50,40,54,47,40,99,90,69,30.01,29.93,6,1,11,0.01
2013-5-6,70,57,50,61,55,50,99,91,66,30.02,29.93,7,2,11,0.00
2013-5-7,83,65,47,63,54,47,99,72,39,30.04,29.93,4,0,8,0.00
2013-5-8,77,65,53,65,59,53,99,84,60,30.05,29.87,4,0,11,0.02
2013-5-9,81,67,57,67,62,57,99,85,55,29.94,29.84,6,1,14,0.69
2013-5-10,70,61,50,65,59,50,99,93,69,30.01,29.85,5,1,13,0.01
2013-5-11,77,60,45,62,47,31,99,68,25,30.15,30.00,7,2,17,0.00
2013-5-12,69,55,36,49,37,25,99,58,20,30.24,30.09,6,1,11,0.00
2013-5-13,81,63,47,62,50,40,97,67,35,30.15,29.78,6,1,14,0.70
2013-5-14,92,76,59,60,55,49,90,53,25,29.90,29.80,6,1,14,0.00
2013-5-15,87,71,59,72,63,55,99,79,57,29.86,29.75,4,1,11,0.21
2013-5-16,68,64,61,67,63,61,99,99,94,29.80,29.72,5,1,11,0.08
2013-5-17,85,70,61,69,65,61,99,85,54,29.81,29.74,3,0,7,0.00
2013-5-18,88,75,64,77,72,64,99,90,68,29.82,29.69,5,1,14,0.00
2013-5-19,89,78,64,77,71,60,99,81,48,30.05,29.66,8,2,17,0.11
2013-5-20,78,67,62,74,66,61,99,97,79,30.00,29.82,7,1,11,0.87
2013-5-21,72,64,60,68,63,60,99,96,76,29.99,29.71,4,1,17,0.01
2013-5-22,79,66,54,63,59,54,99,81,54,30.06,29.88,4,1,9,0.00
2013-5-23,80,66,53,63,58,53,99,79,50,30.30,30.06,7,2,14,0.00
2013-5-24,79,65,52,58,51,47,99,66,36,30.44,30.29,4,2,14,0.00
2013-5-25,82,69,55,67,59,48,92,71,57,30.38,30.18,4,2,12,0.00
2013-5-26,87,75,62,72,67,62,99,78,51,30.25,30.09,6,2,14,0.00
2013-5-27,87,76,66,74,70,65,99,82,61,30.12,29.91,8,2,19,0.00
2013-5-28,85,75,69,72,70,67,99,83,62,30.01,29.89,6,2,15,0.00
2013-5-29,85,76,68,72,69,67,99,80,60,30.03,29.89,8,2,17,0.00
2013-5-30,85,71,62,73,67,61,99,88,55,29.97,29.87,11,2,28,2.17
2013-5-31,86,74,64,77,71,64,99,91,74,29.98,29.81,6,2,17,0.52
2013-6-1,82,69,61,71,65,60,99,89,62,30.09,29.84,4,0,14,1.10
2013-6-2,69,61,54,62,58,54,99,93,73,30.18,30.08,4,1,9,0.00
2013-6-3,79,65,47,63,56,47,99,76,51,30.19,30.04,5,1,10,0.00
2013-6-4,77,68,60,69,64,60,99,88,71,30.14,30.04,4,1,12,0.00
2013-6-5,79,67,60,72,66,60,99,97,75,30.14,29.97,5,1,10,0.19
2013-6-6,75,64,57,70,62,57,99,93,72,30.07,30.01,4,1,11,0.01
2013-6-7,78,65,52,66,57,52,99,78,51,30.11,30.02,8,1,13,0.00
2013-6-8,84,69,51,64,58,51,99,70,40,30.09,29.97,4,0,11,0.00
2013-6-9,82,70,60,71,64,60,99,83,52,30.06,29.95,5,1,10,0.40
2013-6-10,93,78,62,76,69,62,99,77,48,30.04,29.95,2,0,7,0.00
2013-6-11,98,83,43,75,71,31,99,70,32,30.12,30.03,26,1,26,0.00
2013-6-12,94,82,71,76,73,71,99,75,52,30.10,29.99,6,1,13,0.00
2013-6-13,88,79,70,76,70,63,98,75,56,30.16,30.03,6,1,11,0.00
2013-6-14,91,78,64,76,70,64,99,79,58,30.18,30.06,4,1,11,0.00
2013-6-15,77,71,65,76,70,65,99,95,81,30.19,30.05,5,1,15,1.83
2013-6-16,93,77,66,79,72,65,99,87,59,30.12,30.03,4,0,19,0.45
2013-6-17,75,70,64,75,69,64,99,99,94,30.14,29.99,5,1,15,0.15
2013-6-18,91,74,59,74,66,59,99,80,49,30.16,30.07,4,0,11,0.01
2013-6-19,92,78,62,72,67,61,99,74,45,30.19,30.10,3,0,11,0.00
2013-6-20,91,80,67,75,71,67,99,76,51,30.22,30.12,5,1,14,0.00
2013-6-21,95,83,72,80,75,72,99,79,57,30.21,30.11,5,1,16,0.00
2013-6-22,95,83,73,79,76,72,99,81,55,30.21,30.07,5,1,13,0.00
2013-6-23,94,82,71,79,74,71,99,78,56,30.15,30.03,4,1,13,0.00
2013-6-24,94,83,72,78,74,72,99,76,51,30.19,30.06,5,1,12,0.00
2013-6-25,93,82,72,78,73,69,99,76,46,30.11,29.95,7,1,16,0.00
2013-6-26,98,85,74,81,77,72,99,77,51,30.04,29.95,4,1,9,0.00
2013-6-27,103,88,74,84,80,74,99,80,52,30.10,29.98,4,0,8,0.00
2013-6-28,93,81,70,81,70,63,99,69,47,30.07,29.95,4,1,14,0.30
2013-6-29,88,76,64,68,62,55,96,65,38,29.99,29.90,5,1,14,0.00
2013-6-30,82,70,62,69,64,62,99,83,55,30.09,29.95,9,2,14,0.00
2013-7-1,84,71,60,66,61,54,99,73,39,30.16,30.07,7,1,14,0.00
2013-7-2,82,69,54,63,57,53,99,70,39,30.21,30.14,8,1,16,0.00
2013-7-3,89,73,57,67,60,56,99,69,34,30.24,30.14,4,0,13,0.24
2013-7-4,91,78,59,69,62,53,99,61,28,30.21,30.11,4,0,9,0.00
2013-7-5,93,77,61,70,63,58,99,66,34,30.18,30.07,4,0,8,0.00
2013-7-6,94,80,66,72,67,62,99,68,37,30.17,30.06,4,1,11,0.00
2013-7-7,96,85,64,76,68,60,96,61,36,30.14,29.79,4,1,11,5.46
2013-7-8,96,83,71,77,72,67,96,71,45,30.00,29.91,3,0,10,0.00
2013-7-9,98,86,73,78,74,71,99,70,45,29.98,29.84,4,1,11,0.00
2013-7-10,98,83,69,82,76,69,99,81,46,29.95,29.81,5,1,10,0.66
2013-7-11,93,83,74,78,71,59,99,68,39,29.93,29.85,7,1,14,0.00
2013-7-12,91,78,66,68,62,56,91,61,33,29.97,29.88,4,1,12,0.00
2013-7-13,90,77,63,67,63,58,89,63,40,29.96,29.84,4,1,9,0.00
2013-7-14,90,78,63,69,64,59,99,65,37,29.98,29.89,5,1,12,0.00
2013-7-15,93,79,69,76,71,66,99,80,47,30.08,29.97,4,1,12,0.17
2013-7-16,98,80,70,80,74,70,99,85,45,30.17,30.06,3,0,10,0.01
2013-7-17,97,83,70,79,74,69,99,76,47,30.22,30.08,4,0,9,0.00
2013-7-18,100,86,72,78,72,65,96,66,34,30.11,29.91,3,0,7,0.00
2013-7-19,100,84,70,78,74,70,99,74,43,29.93,29.81,4,0,10,0.00
2013-7-20,99,80,70,79,73,66,99,82,47,29.88,29.74,4,0,8,0.78
2013-7-21,88,76,69,80,74,69,99,95,73,29.84,29.74,2,0,7,0.18
2013-7-22,92,79,66,77,73,65,99,83,52,29.85,29.73,4,1,10,0.14
2013-7-23,100,84,71,83,76,69,99,80,52,29.78,29.68,4,1,14,0.01
2013-7-24,88,78,71,76,71,64,99,80,57,29.91,29.77,5,1,11,0.00
2013-7-25,91,77,63,70,66,63,99,71,45,30.00,29.91,4,0,8,0.00
2013-7-26,73,69,65,71,68,64,99,97,81,29.96,29.88,4,0,7,1.24
2013-7-27,81,71,62,69,64,61,99,82,55,29.95,29.85,6,1,9,0.01
2013-7-28,77,68,61,68,65,61,99,91,69,29.95,29.89,3,0,7,0.00
2013-7-29,85,74,66,77,72,65,99,92,75,29.99,29.89,5,1,14,0.17
2013-7-30,85,75,69,81,74,69,99,98,86,29.96,29.87,4,1,12,2.72
2013-7-31,90,78,71,84,75,71,99,90,70,29.98,29.89,6,1,13,0.01
2013-8-1,92,77,63,74,69,63,99,77,45,30.00,29.88,3,0,10,0.00
2013-8-2,89,78,70,83,75,70,99,92,72,29.90,29.77,4,1,11,0.01
2013-8-3,92,79,68,79,74,68,99,88,56,29.99,29.76,6,1,13,0.97
2013-8-4,76,73,70,76,72,70,99,99,99,30.06,29.92,4,0,8,0.98
2013-8-5,89,77,71,84,76,70,99,97,78,29.95,29.73,7,1,15,0.25
2013-8-6,82,76,70,81,75,70,99,98,88,29.84,29.71,4,1,13,0.31
2013-8-7,85,77,70,80,76,70,99,96,81,29.86,29.70,4,1,14,0.21
2013-8-8,90,78,70,78,75,70,99,92,62,29.88,29.75,3,0,8,0.35
2013-8-9,89,76,72,79,74,71,99,93,65,29.94,29.83,5,1,10,0.04
2013-8-10,87,76,68,75,71,66,99,85,61,30.03,29.94,6,1,13,0.00
2013-8-11,87,77,68,79,74,68,99,91,72,30.00,29.91,4,1,10,0.00
2013-8-12,85,75,70,82,74,70,99,96,81,29.95,29.84,2,0,6,0.51
2013-8-13,86,74,68,75,69,65,99,85,57,29.97,29.88,8,1,14,0.01
2013-8-14,81,70,-11,66,61,-52,99,75,10,30.06,29.96,6,1,53,0.00
2013-8-15,80,69,54,63,59,53,99,72,46,30.04,29.91,5,1,9,0.00
2013-8-16,81,68,59,64,61,59,99,81,52,30.03,29.95,4,1,11,0.00
2013-8-17,82,69,55,66,62,55,99,81,56,30.06,29.95,5,1,9,0.00
2013-8-18,86,73,60,71,66,60,99,81,52,30.04,29.94,4,0,9,0.00
2013-8-19,88,75,62,74,68,62,99,80,50,30.01,29.91,3,0,7,0.00
2013-8-20,90,76,64,74,68,63,99,79,53,30.00,29.92,4,0,8,0.00
2013-8-21,94,78,65,76,71,64,99,80,51,30.02,29.93,3,0,13,0.00
2013-8-22,96,81,69,78,73,68,99,79,46,30.02,29.92,3,0,8,0.00
2013-8-23,96,81,67,80,73,67,99,79,48,30.00,29.91,2,0,8,0.00
2013-8-24,94,81,71,79,74,71,99,80,55,30.07,29.96,4,1,11,0.00
2013-8-25,97,82,69,80,73,68,99,78,45,30.12,30.03,4,0,11,0.00
2013-8-26,94,82,71,81,75,71,99,82,55,30.11,29.99,4,0,8,0.00
2013-8-27,96,81,69,76,72,68,99,78,46,30.02,29.92,3,0,7,0.00
2013-8-28,96,81,68,77,73,68,99,80,48,29.99,29.91,4,0,6,0.00
2013-8-29,98,84,69,80,76,69,99,79,51,29.98,29.88,2,0,6,0.00
2013-8-30,100,85,74,80,76,74,99,78,45,29.91,29.78,3,0,8,0.00
2013-8-31,102,85,72,79,76,72,99,77,44,29.81,29.70,4,0,9,0.00
2013-9-1,86,78,72,78,75,72,99,89,66,29.83,29.69,10,1,17,0.00
2013-9-2,88,76,66,72,68,65,99,79,49,29.90,29.80,5,1,12,0.00
2013-9-3,90,74,58,73,63,58,99,72,38,29.98,29.88,4,0,8,0.00
2013-9-4,93,76,57,70,63,57,99,69,35,30.06,29.94,4,0,8,0.00
2013-9-5,92,76,60,70,64,60,99,72,37,30.10,29.99,3,0,7,0.00
2013-9-6,90,76,62,71,66,60,99,74,39,30.06,29.92,3,0,8,0.00
2013-9-7,95,79,65,75,70,64,99,76,46,29.95,29.83,4,0,8,0.00
2013-9-8,93,80,69,78,74,68,99,83,55,29.88,29.79,3,0,7,0.00
2013-9-9,98,83,69,76,71,66,99,72,36,29.91,29.82,4,0,11,0.00
2013-9-10,97,82,69,73,69,64,99,70,37,30.01,29.89,4,0,10,0.00
2013-9-11,98,82,68,76,71,68,99,73,41,30.04,29.94,2,0,8,0.00
2013-9-12,96,80,69,77,72,69,99,79,48,29.99,29.90,6,1,12,0.00
2013-9-13,81,69,60,70,56,52,97,64,41,30.02,29.91,5,1,13,0.00
2013-9-14,80,67,52,58,55,50,97,67,40,30.00,29.88,3,0,9,0.00
2013-9-15,89,69,57,69,60,54,90,75,45,29.96,29.89,4,0,10,0.00
2013-9-16,77,70,66,74,69,66,99,96,83,30.08,29.95,4,0,9,0.14
2013-9-17,84,72,63,73,68,62,99,90,66,30.06,29.90,3,1,9,0.90
2013-9-18,87,75,69,77,73,69,99,95,67,29.93,29.83,4,1,11,0.15
2013-9-19,93,78,71,77,73,71,99,86,54,29.89,29.76,4,1,14,0.00
2013-9-20,75,65,55,74,63,55,99,94,66,30.05,29.82,4,0,8,0.64
2013-9-21,76,61,48,58,52,47,99,77,37,30.00,29.90,6,1,14,0.00
2013-9-22,80,62,45,60,53,45,99,76,42,29.99,29.86,4,0,8,0.00
2013-9-23,81,65,50,62,57,50,99,78,47,29.93,29.80,4,1,12,0.00
2013-9-24,84,69,59,65,62,59,99,81,51,29.89,29.80,3,0,8,0.00
2013-9-25,84,68,54,70,62,54,99,85,55,29.87,29.80,4,0,8,0.00
2013-9-26,84,71,59,69,64,59,99,81,54,29.96,29.84,5,1,12,0.00
2013-9-27,87,74,64,72,67,64,99,81,51,30.01,29.91,6,1,13,0.00
2013-9-28,78,69,61,73,68,60,99,96,79,30.03,29.90,4,1,14,0.44
2013-9-29,79,64,55,64,58,54,99,83,50,30.05,29.92,5,1,12,0.02
2013-9-30,79,67,56,72,65,56,99,93,72,29.94,29.84,4,1,10,0.00
2013-10-1,88,73,65,76,69,65,99,89,57,29.99,29.88,3,0,9,0.00
2013-10-2,85,73,65,77,71,64,99,93,73,30.01,29.90,4,1,9,0.00
2013-10-3,86,75,66,76,71,66,99,89,66,29.94,29.82,6,1,13,0.00
2013-10-4,88,76,68,77,71,68,99,87,63,29.92,29.84,4,1,15,0.00
2013-10-5,72,58,47,72,57,47,99,99,99,29.99,29.88,2,0,10,1.13
2013-10-6,63,53,42,51,47,42,99,82,56,29.96,29.88,4,0,8,0.01
2013-10-7,74,57,43,55,50,43,99,79,43,30.11,29.96,4,0,11,0.00
2013-10-8,74,59,46,60,52,45,99,80,48,30.14,30.04,5,1,10,0.00
2013-10-9,80,61,46,59,53,46,99,77,37,30.12,30.02,3,0,8,0.00
2013-10-10,81,64,51,65,58,51,99,82,49,30.09,29.92,4,1,9,0.00
2013-10-11,81,69,57,70,65,57,99,87,65,29.95,29.84,8,2,14,0.00
2013-10-12,74,62,51,67,60,51,99,92,68,30.17,29.88,7,1,14,0.41
2013-10-13,74,62,51,53,49,45,99,65,42,30.33,30.17,8,1,16,0.00
2013-10-14,66,60,54,63,55,46,99,83,66,30.25,29.96,6,1,16,0.02
2013-10-15,63,59,51,63,58,50,99,98,84,30.03,29.86,5,1,14,0.37
2013-10-16,64,52,40,51,47,40,99,86,56,30.08,29.97,4,0,8,0.00
2013-10-17,69,54,44,55,48,44,99,82,47,30.02,29.93,3,0,7,0.00
2013-10-18,63,49,40,53,46,40,99,91,64,30.05,29.96,5,1,13,0.19
2013-10-19,62,46,36,47,41,35,99,85,49,30.08,29.96,5,0,11,0.02
2013-10-20,72,53,39,50,43,37,99,75,32,29.98,29.84,5,1,13,0.00
2013-10-21,56,48,39,51,44,38,99,89,61,30.06,29.91,5,1,11,0.00
2013-10-22,70,50,36,52,43,36,99,79,47,30.05,29.87,4,1,11,0.00
2013-10-23,58,45,32,46,40,32,99,84,50,30.15,29.99,3,0,7,0.00
2013-10-24,55,44,34,42,36,29,99,77,41,30.38,30.05,8,1,14,0.00
2013-10-25,58,42,28,40,32,28,99,74,33,30.45,30.17,4,1,12,0.00
2013-10-26,64,53,39,60,49,35,99,87,77,30.17,29.78,2,1,6,0.00
2013-10-27,64,64,64,60,60,60,87,87,87,29.96,29.91,0,0,1,0.00
2013-11-14,0,0,0,60,60,60,0,0,100,30.04,30.04,0,0,0,0.00